Theta_e
319 319 319 319 319 319 320 320 321 321 322 322 322 323 323 322 322 323 324 323 323 324 324 324 325 325 325 326 326 326 323 314 318 313 312 312 325 340 336 338 333 334 329 311 309 307 306 306 306 305 305 305 305 303 308 307 307 300 295 289 288 290 292 292 296 297 297 296 296 297 298 296 295 298 300 300 301 299 298 298 299 301 302 303 305 305 310 312
318 319 319 318 318 319 319 320 320 320 321 321 322 322 322 322 322 322 323 323 323 323 324 324 325 325 326 325 325 326 318 316 312 311 311 324 337 338 337 336 334 333 324 311 306 304 303 303 303 304 304 302 309 303 309 304 307 297 294 292 289 290 293 297 298 296 295 295 297 297 296 297 297 298 299 298 295 296 297 299 299 298 299 301 302 305 310 313
318 318 318 318 318 318 319 320 320 319 320 320 321 321 321 321 321 321 322 322 323 323 323 324 325 325 325 325 325 324 318 315 314 308 313 336 339 339 338 335 333 331 311 309 307 305 304 303 303 303 304 300 303 301 305 303 306 299 296 290 291 294 296 299 298 298 298 298 298 297 298 298 298 298 301 298 296 294 295 297 298 297 298 299 301 306 309 311
317 318 318 318 318 318 319 319 319 319 320 320 320 321 321 321 321 321 321 322 322 322 322 323 324 324 324 324 325 319 317 313 306 308 319 339 337 340 338 336 333 329 316 313 310 308 307 306 303 304 302 300 299 305 301 303 300 299 296 291 293 296 296 297 298 300 299 300 299 298 297 297 298 298 299 297 295 295 297 298 299 300 301 300 300 301 306 308
318 318 317 317 318 318 319 319 319 319 320 320 320 321 321 321 320 321 321 321 322 322 322 323 323 324 324 325 323 316 314 295 302 317 324 337 339 339 336 336 333 319 316 312 309 307 306 305 302 304 302 295 296 298 297 301 302 300 297 298 298 297 296 300 299 299 298 298 299 296 297 298 299 299 298 297 294 295 297 300 300 301 302 300 300 302 303 305
317 317 317 317 318 318 319 318 318 319 320 320 320 321 321 321 321 320 321 321 321 322 322 322 323 323 324 324 317 316 302 289 304 317 332 336 338 338 336 335 332 314 312 309 307 305 305 303 301 299 296 296 294 294 293 299 303 295 296 297 298 298 297 299 299 298 297 298 297 296 298 299 298 297 297 297 297 300 302 302 302 302 303 304 302 301 302 302
317 317 317 318 318 318 318 318 318 319 320 320 321 321 321 321 320 321 320 321 321 321 322 322 322 323 323 322 313 312 303 300 308 324 333 337 338 336 335 332 328 315 313 307 306 305 303 301 300 297 298 297 295 294 298 298 302 299 295 296 300 298 298 300 300 296 295 298 298 299 299 298 297 296 299 296 300 301 302 302 302 303 304 302 300 300 302 302
318 318 317 317 317 317 318 318 319 319 320 320 321 321 321 321 321 320 321 321 321 321 321 321 321 322 322 314 314 305 303 300 310 325 332 336 333 331 324 316 314 314 310 306 303 303 302 300 298 300 296 295 294 296 296 296 297 295 293 296 298 298 299 297 295 296 296 297 297 297 297 298 297 299 298 299 301 302 302 302 302 302 302 302 301 301 300 301
319 318 318 317 317 317 317 318 319 319 319 320 320 321 321 321 321 321 321 321 321 321 321 321 321 321 322 315 309 301 300 310 319 330 329 325 325 322 313 311 313 309 308 307 305 304 304 299 299 300 293 296 297 296 296 295 291 295 296 296 295 295 296 296 297 298 298 299 298 296 296 297 297 298 297 300 301 302 302 300 301 301 300 299 300 301 300 300
320 318 318 318 317 318 317 318 318 319 319 320 320 320 320 321 321 321 321 321 321 321 320 321 320 321 314 311 304 298 308 313 323 326 331 321 321 319 317 313 311 309 308 306 306 305 303 300 303 304 303 299 298 295 296 296 292 296 294 294 294 295 295 297 296 298 298 297 297 295 295 296 296 297 294 298 300 301 299 299 298 297 298 299 298 300 299 299
320 318 318 318 317 317 318 318 318 318 319 320 320 320 320 321 321 321 321 320 320 320 320 320 321 318 312 313 302 298 313 318 317 325 324 319 316 313 313 314 310 309 307 306 305 306 305 306 306 303 303 297 298 295 295 297 296 296 295 295 296 295 296 297 296 297 297 295 296 296 295 296 294 296 296 299 302 301 298 299 299 298 298 300 300 299 298 298
319 319 319 318 317 317 318 317 317 318 319 320 320 320 320 321 321 320 320 320 320 320 320 320 320 316 312 308 302 302 312 317 321 319 319 316 314 314 313 311 309 312 308 306 307 307 310 308 304 302 296 301 294 297 296 296 297 296 295 292 294 294 294 297 295 297 296 295 296 295 293 292 293 292 298 300 301 299 298 298 299 299 298 298 298 298 297 297
319 319 319 318 318 318 318 317 317 319 319 320 320 320 321 321 320 320 320 320 320 320 320 320 319 315 310 298 303 312 311 317 317 316 315 313 312 312 310 312 310 307 309 306 306 308 308 306 303 300 302 300 296 294 297 298 296 296 294 293 292 291 290 296 296 296 295 294 295 296 285 286 293 296 298 299 298 297 296 295 295 296 296 296 296 296 297 298
319 320 318 318 318 318 318 317 318 319 319 319 320 321 321 321 320 320 320 319 320 320 320 320 314 313 306 297 311 310 312 313 316 315 314 315 311 311 312 311 311 308 311 306 307 304 308 304 304 302 304 299 296 301 299 296 297 291 293 292 287 286 286 294 296 295 294 295 294 296 287 285 291 294 297 298 296 295 295 296 297 298 298 297 296 296 297 300
320 319 319 319 319 318 317 317 319 319 320 321 321 321 320 321 321 320 320 320 321 320 319 320 312 309 296 299 308 313 325 313 310 313 314 312 310 310 311 310 310 308 305 306 307 308 304 305 302 299 296 300 301 297 290 290 290 291 288 283 285 286 286 292 298 296 294 295 294 294 286 288 292 295 297 297 296 296 296 298 298 298 297 297 297 297 298 300
320 319 320 319 319 318 317 318 318 319 321 321 320 321 321 321 319 319 320 318 318 319 316 312 312 311 297 294 306 319 312 306 308 311 309 314 311 309 309 309 308 307 306 304 307 304 302 304 299 296 298 298 296 290 288 286 286 289 288 283 286 285 287 291 294 296 295 293 294 293 289 287 290 294 296 297 296 296 295 296 297 295 295 296 298 299 298 297
319 320 319 318 318 319 319 319 319 320 321 321 321 321 321 320 317 319 320 320 318 318 314 311 311 309 295 305 308 307 304 309 310 311 309 308 310 308 305 305 304 304 303 302 304 304 302 300 299 297 299 293 290 290 284 281 283 284 287 285 286 287 287 287 292 296 294 294 290 291 289 289 292 291 294 296 296 296 296 297 296 294 294 297 298 297 297 296
320 319 319 319 319 320 320 320 320 321 322 322 321 321 320 320 320 319 318 316 316 314 314 317 310 301 299 305 300 301 307 305 310 309 308 307 308 306 303 302 302 300 302 299 301 299 300 296 296 290 292 293 291 288 283 281 285 283 286 286 287 287 288 289 289 292 295 293 291 289 288 289 291 293 294 296 297 296 295 296 295 294 297 298 297 296 296 295
320 320 320 320 320 320 320 320 321 322 322 322 322 320 321 320 317 314 315 314 309 304 298 297 299 292 293 300 304 305 308 310 309 308 304 306 308 306 305 303 301 299 296 295 294 296 297 294 295 289 287 288 289 289 288 289 289 289 289 288 287 286 287 289 292 295 295 292 291 290 291 292 291 291 293 295 297 294 295 294 294 295 297 296 296 295 295 294
321 321 321 321 321 321 321 321 322 322 322 319 317 313 311 307 305 304 305 309 304 305 302 301 303 302 303 304 304 306 309 309 304 306 307 309 306 304 303 301 301 299 294 291 294 293 295 288 285 284 287 291 292 292 292 292 292 291 289 288 288 288 288 290 292 294 294 292 290 291 291 288 290 291 294 297 297 295 294 294 293 296 295 295 294 294 294 293
321 321 321 321 321 321 321 322 322 322 321 319 316 312 303 300 298 298 300 302 305 306 303 303 303 302 303 305 305 304 303 303 304 303 307 310 304 302 298 298 295 293 291 294 292 296 295 288 287 290 292 293 293 294 292 291 291 289 289 287 288 288 288 291 293 294 296 292 287 287 289 289 290 293 295 297 294 294 293 292 294 294 294 294 293 293 293 293
320 321 321 321 321 321 322 322 322 322 321 317 314 307 304 303 304 306 302 299 305 308 307 306 307 306 311 308 306 306 305 301 301 303 309 308 302 298 296 296 292 291 293 294 292 290 288 287 290 292 294 294 294 293 293 292 291 291 289 287 286 287 289 292 293 293 292 291 286 286 288 289 291 293 296 295 293 294 295 294 293 293 292 292 292 292 292 292
320 320 321 321 321 322 322 322 322 321 317 312 309 307 305 306 306 307 304 298 297 304 304 304 304 306 308 304 305 307 302 300 299 302 303 306 299 298 296 293 292 293 294 293 289 287 285 288 293 295 294 293 293 293 292 292 291 289 289 285 286 289 287 283 288 292 293 291 288 287 287 289 291 294 293 295 295 294 294 295 294 294 292 291 291 291 291 291
321 321 321 321 321 322 322 322 322 317 313 311 308 307 309 308 307 306 301 296 296 302 304 305 305 304 303 304 304 303 301 301 302 301 305 302 298 298 297 295 293 292 292 293 292 290 290 293 296 295 294 293 292 293 291 289 287 287 289 287 286 287 288 287 287 290 290 290 289 288 287 285 290 291 291 292 294 294 293 293 292 292 292 292 292 291 291 290
321 321 321 321 320 321 321 321 314 313 311 310 307 309 307 306 305 307 300 296 296 298 305 304 305 304 302 307 305 301 300 300 299 301 304 303 299 297 296 298 295 290 292 293 292 291 291 295 297 295 294 292 291 290 291 289 287 286 288 291 290 289 288 289 289 287 283 283 287 287 279 278 285 289 290 291 290 290 291 290 290 290 291 290 290 290 290 291
320 320 321 320 320 321 322 314 311 314 314 309 309 309 308 308 307 305 299 290 287 295 300 297 306 298 306 298 301 300 299 296 299 301 306 302 303 299 296 294 296 290 292 293 292 290 292 295 295 294 293 291 290 289 288 292 286 285 286 291 291 289 288 288 286 285 278 278 285 288 280 276 284 288 291 290 288 289 289 289 289 289 289 289 289 289 289 289
321 320 320 321 321 321 315 308 315 314 311 309 311 310 309 308 310 304 297 288 284 296 296 300 300 299 303 299 300 300 287 290 299 299 300 303 300 302 294 290 294 295 294 293 288 286 293 292 291 291 291 290 289 288 290 292 287 285 287 289 289 287 288 287 287 286 282 283 285 288 285 280 279 285 291 289 288 287 287 288 288 288 288 288 288 288 288 288
321 321 320 321 321 320 316 315 314 312 311 312 311 309 308 308 306 304 294 283 284 300 294 295 300 304 302 298 300 294 293 297 293 296 299 301 300 296 294 290 291 291 293 289 284 288 292 290 290 289 289 287 288 290 291 292 288 285 289 290 289 289 287 287 286 283 282 282 278 281 285 280 277 282 289 289 286 286 286 286 286 287 287 287 287 287 287 287
320 320 320 320 321 321 319 317 315 312 312 309 309 309 309 308 305 297 288 283 296 295 303 295 306 300 296 298 295 293 294 295 291 296 300 300 301 296 291 292 292 291 291 292 286 288 293 292 292 292 288 287 289 288 291 293 290 291 290 291 290 289 288 287 283 283 281 280 274 280 284 278 279 283 286 287 286 285 285 286 286 286 286 286 286 286 286 286
320 320 320 320 319 318 316 317 315 313 310 308 307 307 308 306 302 292 286 281 298 290 297 297 296 293 293 291 292 293 292 292 295 296 297 295 297 298 296 296 293 290 289 289 289 290 292 292 294 293 291 291 288 289 289 293 291 291 289 286 284 284 284 283 282 281 279 274 278 283 284 283 276 282 284 285 285 286 286 285 286 286 286 286 285 285 285 285
320 320 319 319 316 317 317 312 316 310 309 308 309 310 308 304 294 287 282 290 296 295 296 295 292 295 291 289 287 292 292 292 293 294 291 295 293 294 293 291 292 285 283 282 285 287 291 290 292 290 294 292 291 290 290 290 290 288 284 282 284 282 279 281 278 279 274 272 277 280 283 285 276 277 284 287 287 289 288 286 285 285 285 285 285 285 285 284
316 318 319 319 319 322 315 313 311 310 308 308 312 311 305 291 295 284 285 299 289 292 289 289 293 291 291 295 291 289 289 292 292 292 289 287 287 288 287 284 284 283 281 281 282 285 286 287 288 293 295 293 289 287 285 287 287 285 283 281 277 275 276 273 276 273 272 274 278 283 282 281 282 284 286 286 286 287 288 288 286 285 284 284 284 284 284 283
312 314 317 317 317 317 314 312 311 310 310 312 311 307 296 288 282 289 288 292 289 295 292 295 291 292 291 292 292 293 293 288 291 290 291 290 287 288 289 289 289 288 282 281 282 281 283 285 290 289 292 293 290 285 281 284 284 284 283 279 276 273 273 268 270 273 273 276 280 282 285 281 283 286 287 285 285 286 287 287 286 285 284 284 284 284 283 283
313 314 314 313 316 316 313 312 311 312 312 311 307 300 293 285 285 296 293 293 295 297 296 293 292 293 293 288 291 292 290 294 291 290 291 288 288 285 289 291 292 291 289 284 284 281 278 279 284 289 286 291 291 291 289 283 283 285 284 285 280 276 272 270 272 272 274 276 280 281 279 276 279 283 284 285 285 285 285 285 285 285 284 283 282 282 282 282
314 313 313 314 315 315 312 312 312 313 312 309 301 294 286 286 288 288 288 292 294 295 294 296 292 291 291 291 294 295 294 290 292 290 289 290 286 284 287 290 293 294 289 286 286 283 283 283 285 292 291 291 290 292 292 285 284 284 285 283 280 280 281 276 276 275 274 276 276 277 279 278 282 285 285 285 285 285 285 284 284 283 283 283 282 282 281 281
311 309 310 309 310 315 313 312 312 313 311 305 296 288 287 290 286 291 291 299 298 294 293 295 293 290 286 287 290 293 297 291 292 290 288 288 289 287 289 291 292 294 289 285 283 281 283 281 289 291 290 289 288 292 293 291 281 283 286 282 283 284 286 280 278 278 277 277 277 278 281 283 284 285 283 284 284 283 283 283 283 282 282 281 281 281 281 281
305 306 302 305 309 314 313 313 313 312 309 302 294 288 293 292 295 296 299 299 298 298 293 289 290 290 288 287 286 290 294 294 291 288 285 289 287 291 290 293 295 293 293 292 285 285 282 281 290 288 289 291 287 291 291 290 288 284 281 282 285 289 286 283 274 273 275 273 274 278 275 277 279 275 282 282 281 281 281 281 281 281 280 280 281 281 281 282
303 302 303 304 308 314 313 313 314 310 306 299 292 293 295 292 299 299 301 300 298 298 292 291 290 294 288 287 287 290 293 290 290 290 284 288 286 293 291 291 294 293 294 292 288 287 289 281 284 288 289 291 291 291 289 289 290 287 283 287 286 277 277 279 275 270 270 269 269 272 279 278 279 281 279 281 280 280 281 280 280 280 280 280 280 280 281 281
305 304 298 304 312 314 312 314 312 307 302 294 292 291 297 295 299 297 299 300 300 297 292 294 291 294 291 286 289 291 291 286 291 289 286 287 286 294 295 294 292 293 293 293 288 287 288 279 281 286 290 290 288 286 281 283 287 287 289 285 285 282 277 275 279 273 275 271 271 270 277 276 281 280 282 282 282 281 281 280 280 281 281 281 280 281 280 281
301 297 296 308 311 313 313 314 307 304 298 291 293 293 298 294 298 299 297 299 295 294 293 292 295 291 293 293 292 290 292 293 291 290 291 292 290 296 293 296 292 293 294 292 289 290 286 283 274 283 286 288 282 283 282 282 282 281 284 280 283 281 282 281 281 278 275 271 273 275 273 278 281 284 282 284 283 282 282 281 281 281 281 281 281 282 282 282
302 297 297 309 311 313 313 308 301 296 295 296 297 295 295 294 297 297 300 301 298 302 297 294 294 292 292 290 292 294 290 291 291 289 291 292 292 286 294 293 294 292 291 290 285 285 281 282 280 278 280 282 280 285 286 287 286 282 282 279 280 278 278 277 276 283 278 279 276 277 276 280 284 286 284 283 283 283 282 282 282 282 282 282 283 283 284 285
295 286 293 309 312 313 307 297 297 299 295 294 293 297 295 301 293 295 297 300 299 297 302 296 296 294 293 293 293 291 290 289 290 289 290 289 293 290 293 295 293 294 288 285 285 289 284 283 278 277 281 282 285 289 290 290 287 288 287 285 286 282 283 280 276 278 280 279 279 276 276 279 284 283 284 284 284 283 283 284 284 284 283 284 285 285 284 284
294 290 303 306 312 310 302 295 297 295 294 296 300 298 298 295 295 297 296 298 295 299 296 295 295 293 295 294 293 292 293 287 290 288 288 289 289 290 291 293 293 290 288 286 288 286 290 277 276 276 280 282 285 287 287 287 289 287 286 283 284 283 284 282 283 281 279 281 280 277 276 281 285 283 283 284 284 285 285 286 286 285 285 284 284 283 283 283
295 296 299 306 307 307 298 288 288 291 294 296 296 296 298 297 295 294 294 296 295 294 294 294 295 297 293 296 294 291 293 285 289 289 287 288 286 292 288 290 292 287 288 287 286 288 280 279 280 276 276 277 278 282 282 284 283 279 280 280 283 281 281 281 282 283 279 281 282 279 273 281 284 283 284 283 284 285 284 285 285 284 284 284 283 283 283 283
294 298 298 301 305 303 293 295 292 292 293 293 293 292 293 294 296 297 295 295 298 295 294 292 295 293 292 293 290 291 291 290 282 284 285 285 285 290 289 289 292 287 290 289 292 289 281 279 278 274 274 272 269 268 267 277 281 283 282 282 283 283 282 282 280 282 278 282 279 277 276 284 283 283 283 283 283 283 284 284 283 282 282 282 281 282 282 281
290 285 294 294 300 299 298 299 296 293 290 291 291 292 294 292 294 295 297 296 299 297 296 293 293 294 290 289 286 287 287 289 287 282 283 283 284 284 286 286 288 285 290 293 290 286 277 281 278 278 278 277 278 274 283 282 280 277 278 279 281 281 281 282 282 280 277 279 278 280 280 280 282 283 281 282 282 282 283 283 282 282 280 280 279 280 280 280
290 285 289 285 296 295 293 297 294 294 289 293 287 291 289 292 293 293 297 290 295 294 292 293 291 290 288 288 285 285 285 286 287 286 284 283 285 284 287 285 285 288 292 290 289 281 280 278 279 277 278 280 281 281 282 283 279 280 278 279 280 279 278 276 278 275 281 277 274 281 277 275 279 281 280 281 282 282 283 283 282 279 279 280 280 279 282 278
283 286 291 295 290 286 288 289 294 293 293 290 285 288 287 289 290 287 292 293 291 292 289 289 292 291 289 288 286 281 283 283 282 281 285 284 284 286 283 286 283 288 287 286 286 282 279 276 277 281 278 281 281 281 282 281 281 280 281 280 279 281 277 275 274 278 280 276 274 279 279 276 278 281 281 281 282 283 283 283 283 282 280 279 279 279 279 278
288 285 285 288 285 288 292 293 294 293 292 292 287 288 285 286 287 290 288 288 290 287 291 283 286 288 289 288 287 282 282 279 279 282 281 280 282 280 280 283 284 284 283 280 283 281 275 271 276 280 276 279 279 279 280 279 279 280 279 280 280 280 279 279 278 279 280 278 280 280 280 279 282 282 280 281 280 279 277 279 279 279 279 279 278 278 278 278
285 284 280 286 288 285 287 293 293 292 289 293 288 289 287 285 284 287 290 289 284 286 289 287 284 284 288 287 285 283 283 284 282 282 281 279 280 278 278 280 279 281 280 281 282 281 280 273 279 273 273 269 273 278 279 278 278 277 279 279 279 279 279 279 279 279 278 278 280 279 278 278 281 279 281 279 278 278 278 278 278 279 279 279 278 278 277 277
287 287 287 282 281 284 286 289 290 290 288 290 288 289 289 287 286 287 287 290 287 286 288 288 285 282 282 284 285 285 283 282 281 282 281 281 282 282 279 278 282 276 278 277 279 276 278 270 274 272 269 265 269 274 274 274 273 272 274 276 276 277 275 278 277 279 278 276 278 276 274 276 277 275 274 276 277 276 276 276 276 277 277 277 277 276 275 276
287 287 289 285 278 287 284 284 288 288 285 289 289 289 288 287 287 288 284 288 286 288 288 289 286 286 283 284 283 284 285 283 284 285 285 285 285 285 283 281 283 281 275 276 277 274 273 270 271 268 269 269 271 273 273 273 271 270 273 276 277 277 278 279 279 279 279 279 274 272 274 279 278 278 278 276 274 274 274 274 275 275 275 275 275 275 275 276
Wind_Speed
8 8 8 9 9 10 10 10 10 10 10 10 10 11 10 11 12 12 11 11 11 12 12 12 12 12 12 12 12 12 12 2 2 1 1 7 3 5 7 6 11 10 8 3 2 4 0 1 1 2 1 2 1 1 1 1 1 3 1 3 1 5 1 4 1 1 2 0 2 1 1 3 1 3 2 3 3 1 5 6 5 4 6 7 8 2 4 5
7 8 7 8 8 9 9 10 10 10 10 10 10 11 11 11 11 12 12 11 12 12 12 13 13 13 13 12 12 12 8 0 3 4 12 4 5 8 9 10 10 11 6 2 5 4 3 1 3 2 2 0 0 1 1 1 1 2 1 2 6 3 6 2 2 4 4 5 3 2 2 4 2 1 2 2 4 4 7 9 2 5 6 9 10 1 6 7
7 7 8 8 8 8 8 9 9 10 10 10 10 10 10 10 11 11 11 11 11 12 12 13 13 14 13 13 12 11 5 3 1 3 3 6 3 8 8 10 10 10 6 3 4 5 4 3 3 3 1 0 1 2 1 1 1 3 3 4 6 5 4 7 5 6 2 2 3 4 3 4 5 2 0 2 7 4 7 9 8 7 9 6 8 3 5 8
7 7 7 8 8 9 9 9 9 9 9 9 9 9 9 10 10 11 10 11 11 11 12 13 13 14 13 13 12 7 1 2 1 1 1 3 1 3 7 8 10 8 1 1 0 2 1 2 2 5 1 1 2 2 1 3 1 2 3 4 4 4 2 5 4 7 7 2 3 2 2 5 4 2 1 5 7 8 8 6 8 15 15 7 8 3 5 5
6 6 6 6 7 7 8 8 8 8 8 8 9 9 9 9 10 10 10 10 10 11 11 12 13 13 14 13 12 2 3 3 1 0 1 3 1 3 5 7 7 4 1 2 4 1 2 1 1 1 1 2 1 1 3 3 4 3 8 6 6 3 4 7 5 8 4 3 3 3 6 6 1 4 2 2 6 11 6 8 9 12 14 8 7 9 3 6
5 6 6 7 7 7 8 7 7 7 8 8 9 9 9 9 9 9 9 10 10 10 11 11 13 13 14 15 5 1 2 2 1 0 2 1 0 1 3 3 5 2 0 3 1 1 0 1 1 0 0 1 2 3 5 4 3 4 3 4 6 6 5 2 4 6 5 6 4 5 3 1 4 7 5 5 11 14 9 9 9 12 12 12 5 5 7 7
2 6 6 7 8 8 7 7 7 8 8 9 9 10 10 9 9 9 10 9 10 10 10 10 11 13 15 10 0 1 2 5 3 3 2 0 1 3 5 5 4 2 1 1 0 0 1 0 1 2 0 1 5 3 8 3 3 6 7 2 6 5 6 6 7 7 5 3 5 5 3 3 3 11 1 3 11 15 13 9 11 12 12 7 6 5 8 9
2 6 6 7 7 7 8 8 8 8 9 10 10 10 10 10 10 10 10 10 10 10 10 10 10 11 11 2 1 2 2 5 4 2 1 3 4 5 7 4 3 2 1 2 2 1 1 1 3 1 1 4 2 2 2 4 0 3 4 2 3 2 4 5 5 6 7 7 5 6 8 9 5 7 5 13 14 16 15 9 10 12 11 10 8 10 9 9
1 6 7 7 7 7 8 8 8 9 9 10 11 11 11 12 12 12 11 11 10 10 9 9 9 8 6 0 2 2 6 3 3 4 4 5 4 4 5 1 1 3 1 0 2 2 1 3 3 2 3 1 1 4 4 3 7 0 2 2 3 4 5 6 7 9 10 9 5 6 13 9 7 6 9 17 17 16 12 7 8 9 10 9 9 11 9 8
2 6 7 7 8 8 8 8 9 9 10 11 12 12 12 12 13 13 13 12 11 10 9 8 8 7 3 2 2 1 5 3 1 6 5 6 5 4 3 3 4 2 0 1 1 1 2 2 1 2 1 2 1 2 2 0 4 2 5 4 4 5 6 3 4 12 12 6 8 5 12 12 3 4 9 4 11 11 6 8 7 4 8 10 7 7 7 6
3 6 7 8 8 8 8 9 9 10 11 12 13 13 13 14 14 14 14 13 11 10 9 8 3 2 1 1 3 6 2 3 0 4 6 6 6 6 2 3 4 3 2 2 2 1 1 2 0 1 1 2 1 5 4 2 2 3 3 6 8 8 9 10 9 16 8 6 6 8 12 12 2 4 11 15 14 9 7 11 10 7 8 10 9 7 5 4
5 7 7 8 8 8 8 10 10 11 12 13 13 14 14 15 15 14 14 12 10 8 7 5 4 1 0 2 5 6 0 2 1 3 5 5 3 4 2 3 3 2 3 2 1 1 0 2 3 2 3 2 3 3 2 1 2 3 3 7 8 6 8 12 9 11 2 5 2 8 1 5 1 5 13 14 12 8 8 11 12 11 9 7 6 5 5 5
4 6 7 7 7 8 9 10 10 11 12 13 13 14 15 15 15 14 12 8 6 4 3 2 2 0 1 0 8 3 2 0 3 5 3 2 2 1 2 2 3 3 3 3 1 1 0 3 4 1 1 1 1 1 1 1 3 5 3 1 9 5 6 17 5 9 6 4 4 7 3 6 10 13 11 13 9 7 8 8 8 7 6 3 3 5 6 13
5 4 6 7 7 8 9 9 10 11 12 12 13 15 15 15 15 11 7 6 5 4 2 3 0 0 1 5 0 3 3 3 3 5 2 1 3 2 2 3 3 2 1 4 1 0 1 2 5 1 0 1 2 2 5 3 1 3 3 2 4 4 6 10 1 4 3 2 5 6 5 7 8 10 9 8 5 4 5 9 10 9 7 7 5 5 9 12
5 3 5 7 7 8 8 9 10 11 12 13 14 15 16 16 11 7 6 6 4 1 5 2 0 1 1 6 1 4 3 1 3 1 1 2 3 1 0 2 2 2 2 4 1 0 2 4 3 1 1 1 0 1 2 2 1 3 3 3 2 6 7 10 11 4 5 0 2 4 3 8 8 10 10 9 7 6 8 12 12 7 7 7 7 11 11 10
4 6 6 7 8 9 8 8 10 10 12 14 15 15 13 10 5 4 5 3 1 4 3 1 1 1 1 5 0 3 1 2 2 1 1 2 3 1 3 3 1 2 2 2 1 1 2 3 1 3 2 2 2 1 2 5 4 2 5 3 4 2 6 5 6 1 3 3 2 4 7 2 5 9 10 11 7 7 8 13 9 6 6 7 11 10 9 11
7 5 5 7 8 7 7 8 9 10 10 12 14 16 12 6 3 3 4 2 2 3 0 0 1 1 1 0 0 0 2 1 2 1 3 2 2 4 5 2 0 1 3 2 2 2 1 1 0 2 0 2 3 3 2 2 6 4 1 6 4 5 3 4 6 6 1 1 3 2 4 6 6 5 7 10 9 9 11 14 7 5 7 10 10 10 11 11
7 8 9 8 9 9 8 9 10 11 11 12 14 12 6 3 2 3 1 1 1 2 2 3 2 1 6 1 2 3 1 3 1 2 1 2 1 2 3 1 1 3 2 1 2 1 1 0 1 5 0 0 1 1 3 7 6 4 3 4 6 3 4 6 4 3 4 1 4 2 6 8 11 10 11 14 14 9 10 9 5 6 9 9 10 10 11 11
9 9 10 10 9 8 9 9 11 11 11 15 14 3 3 2 0 1 0 1 1 1 0 1 2 3 2 2 1 3 2 2 2 2 1 2 1 0 0 1 5 5 1 1 2 4 0 2 3 2 4 2 6 9 11 12 5 7 7 8 6 6 5 6 7 6 4 5 6 6 10 9 5 7 10 11 10 5 7 5 4 7 8 10 10 10 10 10
9 11 11 10 9 9 9 10 12 11 12 10 4 1 0 1 1 0 0 0 3 5 1 3 5 3 6 1 3 1 1 3 4 2 1 1 3 1 0 1 1 1 4 3 1 3 4 4 5 6 8 10 11 12 13 11 8 8 5 5 8 8 6 4 5 6 3 5 5 8 7 4 5 8 11 16 10 7 5 6 5 7 8 9 9 9 10 11
10 11 9 9 10 9 9 11 11 11 9 5 4 1 0 2 1 2 2 7 6 6 8 6 10 9 6 4 3 5 3 1 0 1 2 0 1 5 2 2 2 2 3 3 5 1 4 3 7 9 11 12 14 9 6 6 5 6 6 6 7 2 9 3 5 4 7 2 3 3 6 7 8 10 16 15 7 10 6 6 9 10 9 8 9 9 9 6
12 11 10 10 9 9 8 9 10 11 10 3 1 1 1 0 0 0 1 4 4 7 9 13 7 6 7 4 4 4 3 1 0 1 1 1 3 4 1 4 4 6 3 2 3 3 3 7 10 13 12 9 7 5 5 6 7 5 4 2 4 6 5 4 6 3 3 3 5 4 6 7 10 12 17 10 6 7 8 10 7 9 10 8 8 8 7 9
11 11 10 8 8 8 8 9 9 10 5 2 1 1 0 1 1 1 1 0 6 4 4 6 7 11 8 4 1 1 2 4 3 3 4 2 3 4 5 4 5 4 2 5 8 4 3 5 14 12 6 6 7 6 5 7 4 3 6 6 8 3 3 6 4 7 6 1 5 4 6 7 6 12 8 8 11 9 10 13 12 10 11 10 9 7 8 9
10 10 9 8 7 6 8 8 9 5 1 1 2 1 0 0 1 1 2 2 3 6 3 3 1 1 2 3 2 2 4 2 2 4 2 4 7 3 3 6 7 4 7 7 10 11 11 8 9 6 5 7 9 9 6 4 5 2 3 4 4 4 3 3 4 3 4 4 1 4 6 6 6 11 5 2 5 10 8 10 11 9 9 7 7 10 9 9
11 10 8 7 6 5 5 5 3 2 1 2 1 0 1 1 2 1 1 3 0 5 0 1 1 1 1 1 1 1 1 1 0 0 2 2 3 3 3 2 2 6 6 5 5 7 7 7 2 2 2 5 6 7 8 3 3 2 3 7 6 4 2 2 2 4 6 4 3 5 7 3 4 5 3 4 4 9 4 9 8 7 6 6 10 9 7 8
11 10 8 6 5 4 4 3 1 0 1 1 1 1 0 1 1 1 1 1 4 4 2 4 1 1 1 0 1 2 4 2 0 1 1 2 1 1 1 1 3 6 6 4 5 4 7 3 4 8 8 5 4 5 4 4 4 1 6 4 3 4 2 1 3 5 2 0 2 4 1 8 3 4 8 5 5 5 4 6 6 6 6 7 8 7 7 7
9 9 8 7 5 4 0 1 1 1 0 2 2 3 0 1 1 1 2 2 3 2 3 0 1 1 1 0 1 1 3 3 1 2 1 2 0 0 1 4 1 1 1 1 3 4 3 1 5 3 4 4 3 6 5 6 3 5 2 4 3 2 1 0 1 1 5 2 4 2 5 7 2 7 13 5 6 3 4 5 5 6 6 7 7 7 7 7
9 9 9 8 8 8 1 0 2 1 1 0 2 3 2 0 2 1 1 3 3 1 1 0 0 1 1 0 4 1 0 2 2 2 1 1 0 2 1 2 4 2 1 3 5 4 2 1 3 3 1 3 6 7 1 5 5 4 2 4 2 0 1 0 0 2 3 1 7 4 2 1 4 8 2 8 4 1 3 3 3 4 5 5 7 7 7 7
11 10 10 9 10 11 1 1 1 2 1 2 3 3 2 2 1 0 2 2 0 1 2 1 3 1 1 1 1 1 1 0 1 1 1 2 2 2 1 4 0 2 3 5 7 2 2 2 5 6 5 6 6 3 3 7 2 2 2 0 2 1 1 1 1 1 2 1 6 6 4 4 7 6 2 2 2 6 4 4 4 4 4 5 6 7 7 6
13 12 11 11 5 2 1 2 3 1 3 3 3 3 2 1 0 1 2 5 2 1 1 1 1 3 2 3 1 1 1 0 2 0 1 2 0 2 0 0 0 1 1 4 2 6 2 3 4 3 5 6 3 0 1 1 2 3 4 2 5 5 2 1 2 2 2 1 7 8 6 6 4 4 4 8 8 6 7 3 4 5 5 6 6 7 5 5
13 12 12 13 6 4 5 4 4 5 3 2 3 4 1 1 2 3 7 2 2 1 1 0 1 3 4 3 2 0 2 2 0 1 1 1 1 2 2 1 3 2 2 3 5 3 1 2 0 3 1 3 3 2 3 1 1 3 1 2 5 5 4 2 2 3 1 5 6 4 6 8 6 5 3 4 3 12 16 14 11 7 6 5 5 5 5 5
3 10 15 12 3 5 7 3 4 5 5 4 2 1 2 0 0 6 2 1 1 2 3 2 1 3 4 0 3 4 4 0 2 2 5 3 3 3 3 4 3 0 3 2 4 1 2 7 3 1 1 8 1 2 2 3 2 4 4 5 3 4 4 2 1 1 5 6 2 0 4 2 8 8 2 4 8 4 3 7 11 11 8 6 5 5 4 4
6 3 10 3 2 3 2 2 6 5 5 1 2 1 2 3 8 4 2 2 2 3 3 3 3 3 4 3 2 2 1 3 3 3 5 1 3 5 4 4 6 4 2 2 2 2 6 2 1 4 4 3 6 6 2 1 1 6 5 5 5 1 1 3 5 2 3 5 6 3 1 2 3 4 5 5 6 5 11 11 10 10 9 6 5 4 3 4
4 3 3 1 2 2 5 5 5 6 5 3 2 4 3 5 4 6 9 7 2 1 3 1 1 2 3 6 3 5 1 2 6 3 4 3 4 2 4 7 4 2 2 1 1 2 2 4 5 5 3 3 7 10 10 5 6 8 3 9 8 6 2 3 3 4 5 6 2 2 2 5 3 2 2 6 5 9 10 11 9 8 7 5 4 4 4 4
5 5 3 2 1 3 5 6 7 4 5 4 2 4 6 7 2 5 5 3 1 1 1 1 4 3 2 0 1 2 3 1 4 3 4 5 4 3 4 3 8 6 2 2 3 2 6 6 4 2 1 5 7 1 3 4 2 2 3 4 4 5 4 4 3 1 3 4 5 2 5 3 3 2 3 3 7 9 8 9 8 8 6 5 5 4 3 3
3 2 2 2 1 3 4 5 6 1 6 4 4 5 11 6 4 2 2 4 1 3 2 1 1 3 3 2 2 4 2 3 1 3 2 4 4 4 4 4 5 11 6 6 3 1 1 3 1 2 4 5 4 2 3 2 2 2 4 3 5 3 2 2 4 2 1 0 9 1 5 1 2 1 3 2 7 6 6 6 7 6 4 4 4 3 2 1
4 1 1 0 1 4 5 5 5 4 5 7 5 10 5 1 4 1 2 1 2 5 3 6 4 7 4 4 3 4 2 2 2 3 4 2 3 6 4 2 2 6 9 9 3 3 4 6 1 3 2 3 2 1 1 3 3 5 2 6 1 2 3 2 4 2 2 6 6 1 4 3 1 6 3 1 6 3 4 4 5 4 3 4 3 2 2 2
2 1 0 1 3 6 6 6 6 3 4 7 12 10 2 3 2 4 0 0 0 1 3 6 3 7 3 4 2 3 0 5 2 3 2 3 3 3 3 2 3 1 3 2 4 2 4 4 3 3 2 3 1 1 3 1 2 3 3 1 0 4 2 2 4 3 2 4 5 3 7 6 7 6 4 5 6 6 5 4 5 4 3 4 3 3 2 0
2 2 2 3 6 8 6 6 5 6 6 8 8 8 2 4 0 2 1 2 1 2 2 3 4 1 3 2 2 0 3 3 3 3 2 2 3 2 2 2 0 3 3 5 2 0 1 3 6 2 2 1 1 4 4 3 2 2 1 1 1 2 3 2 5 4 3 6 4 4 4 7 1 3 5 6 7 8 6 5 5 6 5 5 5 4 4 2
2 2 4 1 2 4 6 6 5 7 7 12 7 6 1 1 3 2 1 2 1 3 3 2 0 3 2 4 3 3 1 1 0 2 2 3 2 3 2 5 2 1 5 3 2 1 1 3 4 1 3 2 1 1 5 5 3 1 2 2 1 1 2 2 2 3 4 3 4 7 8 5 2 1 3 7 9 8 9 8 5 4 6 6 6 6 5 3
1 1 1 2 5 6 7 4 6 10 7 3 2 1 1 3 1 1 2 5 2 2 3 1 2 4 2 1 5 4 1 3 2 3 3 3 3 4 0 1 3 0 2 5 5 2 2 0 6 2 2 2 4 1 4 3 5 3 4 4 5 1 4 5 9 1 1 5 5 8 12 2 0 1 1 6 6 9 6 9 7 8 8 6 6 6 5 4
3 2 2 6 6 9 9 10 6 1 2 8 7 4 3 3 1 3 1 1 2 2 0 1 3 3 2 5 2 3 4 3 5 4 5 8 2 3 0 1 2 0 2 1 3 1 3 2 3 4 6 7 5 3 1 2 4 5 5 5 4 2 4 1 6 4 1 3 1 1 1 4 0 2 2 5 7 8 9 9 8 8 9 8 7 5 2 2
2 2 3 1 5 9 8 8 4 5 6 2 2 4 2 1 4 4 5 4 3 5 3 5 6 2 5 4 5 6 4 3 6 7 3 5 3 2 4 5 2 5 4 0 3 1 8 1 1 5 5 4 3 3 4 4 3 0 1 2 2 4 4 5 5 2 2 2 6 3 4 2 2 2 2 4 5 8 7 9 9 8 6 6 6 3 3 2
1 2 2 1 2 4 7 9 8 9 8 2 3 5 4 4 4 4 6 7 6 3 5 4 2 10 4 6 5 5 6 2 4 5 3 2 2 2 5 5 1 1 2 4 5 4 2 3 6 1 3 6 7 3 4 3 6 1 1 2 1 1 1 2 1 1 4 6 10 8 12 6 1 1 1 3 3 5 8 7 4 5 5 5 4 4 4 4
2 1 2 2 2 5 11 4 6 8 10 10 8 9 5 3 6 9 7 7 5 4 3 3 6 3 5 4 4 4 4 8 1 2 4 1 2 2 6 5 3 3 1 1 4 3 4 3 5 4 8 8 7 4 2 0 0 0 1 0 2 3 2 1 3 3 7 1 4 1 4 0 1 0 1 3 4 5 6 6 5 5 5 5 4 4 5 5
3 3 2 1 5 6 5 1 1 2 5 7 8 10 8 8 3 5 9 4 9 4 5 2 2 5 4 4 4 5 4 1 6 2 2 1 0 2 3 5 3 2 3 2 2 3 2 0 3 6 8 10 8 2 1 5 1 1 5 2 7 4 3 4 3 6 8 3 9 10 8 5 9 7 5 6 6 8 9 6 7 6 4 4 5 5 5 5
1 3 4 5 3 7 7 6 4 3 3 6 6 4 11 12 7 3 10 4 6 5 2 4 3 5 4 5 4 2 3 1 1 3 3 4 0 1 3 4 3 4 1 2 3 4 2 1 4 4 5 7 3 4 3 1 3 5 6 8 7 6 3 4 8 5 3 1 13 9 5 3 9 9 3 5 5 8 8 6 6 4 5 7 6 5 5 4
3 5 3 4 4 7 13 10 10 6 6 2 4 2 4 10 8 8 1 3 2 4 6 2 6 6 4 8 4 4 4 4 4 3 2 1 5 0 1 3 2 2 3 1 1 3 3 3 5 3 5 7 4 4 4 3 3 3 6 8 11 11 6 7 4 6 7 9 14 13 12 8 9 12 8 5 8 8 8 8 6 9 6 5 4 5 5 5
2 2 2 2 2 3 14 10 14 15 14 9 3 2 2 6 11 9 5 1 2 3 7 5 5 7 7 5 5 5 5 3 5 0 3 2 2 3 1 1 2 3 2 2 1 1 4 3 4 2 4 5 5 3 2 5 5 7 10 13 14 14 14 7 8 11 11 11 12 14 12 16 14 9 3 5 5 5 3 1 5 7 6 6 6 5 5 5
4 1 2 4 1 2 1 7 8 12 13 13 9 10 2 2 4 1 0 5 3 3 1 7 5 3 7 7 6 5 5 6 7 5 1 5 0 1 2 3 2 2 2 1 1 3 6 5 5 0 1 4 4 1 1 3 4 8 10 12 13 12 9 10 11 7 8 9 12 10 10 14 7 1 3 2 3 3 4 5 6 6 6 6 6 5 5 4
2 1 1 2 2 3 1 4 8 11 11 10 14 11 4 6 7 3 2 0 4 5 5 11 7 3 1 4 6 7 3 5 4 4 6 6 8 4 5 3 4 4 1 1 0 1 3 4 2 1 1 4 1 3 2 3 3 5 11 17 15 11 13 12 9 7 10 12 10 6 8 12 5 2 1 0 3 4 4 3 3 4 4 5 6 5 4 4
1 2 3 1 0 3 5 2 5 5 12 11 8 8 8 8 4 4 2 1 3 2 2 6 8 8 0 4 5 6 6 6 6 5 6 4 4 2 3 3 6 7 3 4 1 2 3 4 1 1 1 6 4 4 4 2 4 8 16 21 15 13 13 9 9 8 9 6 5 7 11 6 6 4 5 2 3 3 5 4 4 3 5 6 5 4 4 4
Wind_Direction
26 23 20 18 16 13 10 11 9 8 6 6 4 3 5 2 359 358 357 356 354 354 351 347 346 340 338 340 340 337 337 39 333 276 254 235 174 150 144 121 150 160 156 115 91 95 306 267 255 280 52 53 273 55 249 33 117 59 84 120 280 208 258 233 230 273 220 270 280 321 196 105 23 342 273 6 304 264 285 284 266 280 261 246 257 19 129 138
24 17 16 17 14 13 10 6 5 3 2 1 0 358 358 356 355 353 353 352 352 349 348 345 340 338 337 336 339 337 337 333 304 260 250 314 168 155 141 145 150 155 142 105 146 165 139 264 240 151 101 344 316 138 23 272 83 115 171 112 220 197 235 186 265 313 15 307 269 302 44 62 290 42 268 305 280 285 300 283 278 281 276 286 284 81 125 141
18 11 3 9 8 8 5 1 359 359 357 355 356 354 353 351 351 348 347 349 346 346 345 340 339 335 335 336 334 340 352 343 318 315 292 9 157 143 147 149 158 163 152 155 199 165 175 191 189 142 181 109 295 194 65 254 99 239 133 233 244 216 255 301 303 298 332 241 344 2 316 10 281 312 264 240 271 310 259 275 305 274 264 262 285 111 155 169
12 9 2 1 1 359 358 355 353 353 354 352 347 350 347 347 347 345 343 343 343 341 340 339 334 334 331 331 335 326 36 7 359 258 330 17 148 136 152 157 166 176 139 19 236 184 223 301 125 161 90 165 280 90 149 241 108 268 104 195 232 232 269 270 301 307 314 27 328 319 303 333 298 260 340 273 306 267 257 234 231 270 275 256 264 276 160 185
6 2 354 348 355 356 352 349 346 349 348 345 345 341 344 342 342 340 339 337 338 337 336 333 334 328 330 328 329 359 16 51 260 221 297 315 105 173 152 163 159 145 145 2 354 18 27 9 53 72 106 262 338 40 244 218 196 125 206 204 210 293 294 269 287 304 316 326 350 326 339 280 306 319 264 241 252 268 245 245 228 243 265 261 263 277 185 189
357 352 344 343 343 350 347 341 342 342 341 339 337 336 334 338 337 333 333 331 331 332 331 331 329 331 326 324 338 27 61 27 245 332 321 299 316 102 139 124 123 113 76 358 64 328 44 338 62 48 331 119 242 194 267 201 158 245 282 241 219 225 239 286 297 289 315 301 299 304 252 325 331 285 250 239 246 262 244 250 247 252 255 264 268 270 280 259
351 344 338 338 338 340 338 338 338 337 335 333 332 332 332 332 327 326 324 326 323 325 328 327 327 326 329 320 241 57 182 253 336 281 352 61 118 100 86 80 85 64 61 56 336 90 161 274 105 224 134 216 275 217 255 278 175 212 245 262 258 232 244 270 292 331 320 269 276 259 335 293 300 295 231 243 256 260 267 256 259 262 272 274 278 251 246 257
327 343 335 332 336 332 334 336 335 334 335 332 329 328 326 324 324 321 322 319 320 318 323 323 323 322 346 14 27 357 52 252 252 241 214 102 83 100 95 68 83 65 65 184 171 194 118 171 221 219 235 200 233 187 299 350 241 230 270 243 269 334 287 322 297 298 294 285 263 310 297 265 223 250 322 277 276 276 272 261 262 270 275 284 280 271 254 254
294 328 325 333 331 331 332 335 332 331 329 328 327 325 324 322 321 320 316 316 314 314 312 318 316 323 326 74 119 358 263 238 213 162 143 124 135 133 103 95 102 99 151 266 212 201 108 261 222 174 253 348 293 324 317 17 320 264 276 6 316 310 299 293 310 298 289 288 268 291 273 272 247 284 272 262 272 269 279 290 271 275 285 275 262 261 261 252
316 326 322 328 331 327 332 330 329 330 327 325 326 324 322 321 319 317 315 313 310 308 302 306 310 315 354 98 58 263 262 219 151 151 165 138 134 135 25 144 142 135 102 255 332 226 188 235 205 210 157 255 8 270 346 65 225 323 357 335 313 280 310 306 308 292 276 266 264 241 272 275 254 158 282 247 249 273 306 292 288 277 271 273 264 259 263 256
335 318 317 324 326 325 328 327 325 324 325 324 324 322 321 320 317 315 315 310 307 300 299 281 293 355 126 148 135 227 221 101 350 159 153 136 124 133 202 170 166 152 183 305 232 354 260 143 204 131 36 224 2 307 342 257 287 40 342 337 327 324 313 293 287 275 289 285 236 209 250 266 270 182 244 270 276 279 304 296 293 285 267 272 275 272 281 295
310 305 313 317 320 317 324 324 320 322 324 324 322 320 319 317 317 314 311 308 301 298 293 291 235 258 48 106 194 218 185 214 129 114 136 131 132 178 169 117 149 167 154 201 20 321 298 149 83 78 220 31 310 318 312 270 12 292 1 321 300 327 314 284 263 267 221 257 192 175 224 306 274 219 238 251 270 299 295 289 290 285 276 273 291 315 319 295
266 284 299 310 305 307 315 317 317 318 323 321 319 316 316 316 315 314 312 310 302 291 293 270 141 281 112 322 234 240 327 351 126 107 75 111 116 30 66 96 92 110 135 137 166 311 168 110 101 87 243 59 215 232 216 50 328 349 355 238 311 338 310 276 271 251 269 253 145 136 266 251 257 246 257 266 278 294 295 283 274 276 286 302 327 320 328 28
249 244 288 296 299 299 306 310 310 315 319 319 316 315 315 315 314 315 313 300 290 283 260 136 77 262 105 245 308 276 310 360 102 84 154 126 91 320 15 1 36 60 82 112 169 220 46 61 92 155 145 120 267 304 354 335 334 279 279 98 234 322 270 278 231 294 326 233 181 148 204 269 259 277 271 273 278 264 279 286 287 290 311 327 322 319 41 46
248 253 266 279 289 301 308 308 312 316 318 321 318 315 315 314 313 315 321 317 279 197 183 132 71 92 102 264 16 332 336 99 96 243 183 124 107 31 331 16 65 35 113 121 128 303 99 55 62 36 271 259 47 22 329 356 318 265 14 297 314 186 273 291 301 283 250 286 14 128 266 232 245 260 273 274 281 288 293 285 285 318 344 323 350 39 63 52
249 271 271 290 299 303 304 304 306 308 318 318 316 309 306 302 305 304 333 320 53 149 130 71 248 140 33 298 230 318 39 146 218 226 304 124 141 201 183 138 86 57 47 358 76 27 40 100 132 189 318 352 244 110 4 24 326 308 181 252 262 208 252 338 282 4 187 113 334 181 240 309 304 262 265 272 289 301 288 282 297 4 322 14 57 59 50 43
275 267 287 283 287 289 284 275 273 287 303 307 308 303 292 263 268 284 331 0 69 94 213 94 113 188 193 249 82 206 217 242 312 9 353 17 111 150 100 72 76 77 38 29 34 70 350 87 274 43 65 190 148 100 41 0 290 294 231 218 214 241 283 264 304 330 88 117 240 274 249 234 249 283 284 289 287 290 287 287 323 358 26 72 70 64 56 51
239 253 255 256 264 268 273 283 290 299 307 314 313 297 285 220 205 338 293 318 189 185 253 218 208 354 283 86 237 222 124 113 82 183 83 285 81 116 113 107 72 97 78 38 350 106 280 95 82 196 24 309 126 123 166 239 206 229 265 277 292 260 224 247 303 262 304 238 245 287 246 266 269 277 284 276 278 278 272 290 329 18 78 76 76 68 61 56
238 252 252 248 262 276 281 287 300 305 314 325 312 356 72 101 132 211 294 157 98 12 354 213 122 141 188 220 217 63 49 196 114 65 257 116 279 115 63 88 110 114 129 89 286 117 330 52 38 52 235 203 216 195 202 224 202 229 230 239 242 250 265 266 251 275 254 284 300 275 274 279 286 281 271 273 258 244 277 300 353 81 88 84 78 70 62 59
242 245 253 262 270 273 280 287 297 303 324 331 343 333 29 24 13 8 310 194 231 204 189 189 219 267 310 284 154 260 260 24 109 283 193 280 109 110 53 105 47 64 99 181 190 221 132 143 164 196 214 216 223 214 217 227 221 241 256 265 258 262 282 280 271 268 305 312 249 260 272 303 288 282 288 281 302 309 296 308 73 89 77 71 73 72 71 62
242 253 265 266 266 271 280 293 298 303 317 312 303 353 106 170 105 273 292 252 232 247 258 248 204 214 226 132 136 139 139 262 52 213 216 230 117 106 233 103 73 207 243 175 153 253 93 166 231 214 210 216 227 229 235 257 243 230 246 257 276 254 278 254 287 285 313 311 286 310 360 313 298 294 282 284 331 321 342 76 93 87 79 75 69 67 62 71
242 248 250 256 264 274 285 290 299 309 315 256 160 65 106 110 233 204 118 310 311 246 232 243 252 258 257 208 198 158 88 113 118 294 282 144 180 150 252 129 155 189 241 105 49 111 168 202 232 223 219 232 259 253 244 245 263 276 260 264 308 269 257 284 275 334 330 10 272 307 318 292 289 284 283 322 43 44 50 84 76 84 78 69 66 63 62 57
234 243 248 250 260 273 290 291 305 313 330 38 17 59 151 242 257 295 92 158 275 253 234 249 242 236 249 58 312 164 131 205 236 211 206 135 89 221 160 157 175 209 198 159 164 150 206 271 246 238 216 229 262 261 262 266 275 274 297 300 270 264 349 306 295 346 337 92 283 299 306 292 287 279 12 36 92 73 65 70 74 74 79 74 63 58 64 59
234 243 243 247 253 267 280 299 294 315 227 170 112 160 233 165 85 92 88 211 279 298 206 232 210 176 208 166 236 114 156 260 164 228 186 145 161 191 150 180 185 179 221 196 184 180 202 210 221 235 217 201 229 251 258 264 279 284 194 224 256 291 252 205 266 310 283 318 115 7 342 316 254 272 90 34 57 80 64 73 72 64 75 86 84 66 53 58
222 236 242 243 238 249 270 294 326 231 240 62 67 236 202 129 80 129 105 314 346 273 126 357 118 54 200 342 351 140 219 30 173 241 167 147 194 89 227 191 137 216 215 210 199 222 261 258 242 234 225 194 218 257 253 193 282 294 236 208 224 207 207 277 315 24 15 331 341 49 352 311 273 272 217 153 54 61 46 77 69 73 70 68 66 62 53 53
211 219 229 228 218 233 264 325 272 177 62 194 204 204 143 80 75 101 103 67 301 259 16 195 39 220 63 23 17 162 83 229 233 246 76 192 88 170 12 268 158 228 222 233 219 200 208 244 193 224 241 220 183 218 230 158 200 60 269 169 165 155 124 103 358 42 349 143 274 72 227 272 328 306 279 126 89 78 63 59 72 67 61 57 64 62 51 46
215 212 212 209 198 194 173 204 273 30 58 278 175 125 75 56 296 89 29 317 343 219 145 293 83 233 65 294 100 69 113 251 319 12 37 340 20 258 160 246 22 291 174 139 40 289 168 182 104 98 133 160 196 244 244 156 139 250 242 129 110 81 8 322 70 136 239 264 307 329 177 252 257 267 251 104 104 114 80 75 58 67 64 64 63 55 52 42
216 213 206 202 189 182 223 9 358 189 211 204 123 86 65 25 65 102 90 315 282 115 110 221 269 288 73 231 65 128 199 146 92 233 110 288 79 354 96 230 173 205 253 80 180 262 157 212 171 191 142 148 207 215 229 126 143 217 222 127 98 94 187 139 178 215 229 19 289 287 204 288 244 251 305 133 115 223 118 107 96 86 82 74 65 52 49 46
218 215 206 199 194 203 71 171 151 250 176 122 88 79 76 56 97 109 103 184 201 93 320 70 279 41 41 52 56 133 164 355 144 214 316 68 50 145 116 251 176 287 274 161 199 284 345 173 217 160 135 213 225 260 193 148 192 259 183 66 48 75 136 166 145 121 328 81 271 247 183 212 280 265 343 251 137 196 179 147 124 111 92 81 73 59 47 42
215 215 203 188 164 168 267 88 223 205 122 119 114 100 69 70 160 126 154 233 60 269 132 200 124 202 110 126 267 177 132 302 97 66 15 156 250 29 200 143 118 48 340 352 276 214 229 295 186 131 194 210 174 6 112 77 162 116 81 61 359 18 342 45 92 112 57 298 249 230 211 177 287 274 211 143 219 170 132 121 122 103 79 65 58 58 44 39
207 203 188 161 178 191 130 214 203 142 144 131 134 97 90 56 161 159 222 210 48 215 52 185 186 75 126 129 174 182 121 139 115 108 56 40 25 44 351 19 25 44 42 358 287 310 326 346 126 257 174 87 100 108 10 100 144 119 67 106 25 333 16 39 347 46 111 268 259 234 199 186 186 284 279 266 321 158 161 165 154 126 94 71 64 60 48 42
123 177 173 175 218 170 167 226 155 146 146 178 127 71 115 9 287 203 212 99 282 204 147 216 197 154 186 217 129 168 171 152 185 146 158 173 149 139 214 157 165 48 318 209 262 20 232 210 240 339 284 155 138 76 316 24 16 82 83 49 93 267 35 322 37 310 200 210 244 289 114 80 241 224 237 49 8 15 44 117 133 121 108 92 74 67 48 49
80 65 173 164 131 161 71 139 128 144 142 145 74 107 126 147 237 135 290 187 257 125 248 100 191 161 164 126 225 193 148 165 192 206 134 185 125 250 249 192 188 158 226 245 210 9 274 301 223 249 357 195 126 150 251 321 224 121 146 140 103 143 185 238 253 213 296 293 244 176 24 217 248 282 16 63 39 49 87 92 101 109 113 112 101 86 69 48
96 116 124 6 61 79 125 131 138 152 131 95 96 55 91 211 228 160 198 208 207 356 81 119 84 82 125 168 233 156 181 242 150 219 158 178 150 240 276 250 205 274 166 218 227 205 337 335 276 151 235 183 162 196 183 170 160 201 133 150 182 152 152 240 206 219 232 224 280 268 50 234 135 244 58 84 80 78 84 91 92 93 99 105 99 80 65 56
121 89 115 112 77 115 144 150 152 191 107 114 129 166 201 222 140 179 227 231 281 88 123 299 133 107 267 344 275 214 161 270 183 134 177 148 219 177 201 227 216 171 139 111 258 86 212 219 257 227 239 148 179 255 114 93 66 220 165 82 79 241 146 186 208 189 258 305 305 273 205 197 159 90 83 63 74 70 78 87 92 88 86 85 73 71 64 52
93 347 55 112 165 158 142 159 140 130 122 136 158 207 220 180 204 149 219 183 174 159 161 52 101 148 234 254 302 204 315 169 232 107 286 193 210 191 223 205 178 186 161 170 196 203 56 272 295 5 55 161 194 177 207 122 192 250 94 214 208 183 110 287 338 253 93 358 252 174 298 345 107 73 53 83 78 75 77 81 86 91 93 91 96 92 81 82
82 51 29 260 226 148 151 153 145 124 143 176 193 231 199 290 190 196 277 182 213 126 136 167 232 165 203 219 207 202 236 65 241 135 256 174 298 206 222 239 75 181 193 157 286 182 170 249 278 113 255 264 186 133 101 34 143 84 151 239 232 107 118 136 220 316 218 217 262 159 217 280 133 282 136 84 94 102 96 107 107 114 110 106 135 158 175 165
92 107 194 264 209 154 149 163 137 126 158 188 216 222 124 206 245 208 177 81 66 357 142 187 268 147 230 170 258 163 307 154 233 138 239 198 250 188 154 161 345 113 213 164 143 266 106 330 294 254 193 299 346 71 338 344 35 168 187 243 128 281 320 307 89 272 274 254 276 286 256 257 211 233 141 204 157 157 144 135 130 128 147 162 175 192 224 256
89 89 294 242 165 151 150 159 138 163 177 215 223 232 217 210 278 192 221 118 105 113 185 244 169 276 131 132 191 53 143 164 186 191 91 244 179 332 125 142 145 338 26 111 113 235 46 159 293 321 137 263 23 82 232 267 329 32 48 15 208 107 173 207 203 186 168 269 263 284 257 259 182 197 165 207 180 166 145 149 168 177 177 191 191 203 195 196
96 68 246 53 105 116 141 153 152 188 212 217 197 216 84 171 237 230 209 184 253 146 235 183 270 159 164 193 132 161 299 163 133 272 144 279 284 20 36 2 141 325 22 68 117 90 226 120 222 287 312 26 283 152 200 174 175 352 46 299 344 256 221 130 300 183 181 204 216 269 268 269 257 219 211 207 169 160 155 163 178 192 205 205 201 190 189 185
72 108 260 115 148 137 134 175 197 201 213 246 210 153 114 221 205 311 78 77 112 335 173 199 186 195 163 97 247 153 188 182 159 210 187 275 233 295 79 113 334 109 15 25 59 347 114 285 200 302 6 212 233 223 171 143 140 145 161 209 174 94 290 265 262 117 143 226 240 233 256 280 230 314 184 119 126 147 173 160 179 204 206 208 207 210 196 183
110 163 245 147 172 158 153 192 212 191 227 212 212 176 219 134 114 226 120 64 113 172 9 267 237 197 207 224 202 159 177 186 196 209 218 214 268 204 229 46 264 147 116 122 172 260 141 142 101 240 218 216 216 223 222 154 136 174 151 237 167 146 123 136 253 255 270 232 185 213 269 271 354 260 111 133 145 165 176 171 184 201 207 209 212 203 199 175
160 225 15 323 194 171 163 216 202 207 230 222 90 256 158 211 195 179 177 168 200 172 181 198 208 206 224 212 195 214 189 243 186 212 199 210 209 210 274 315 1 39 74 336 49 280 74 90 30 289 291 303 325 330 20 48 146 187 6 29 126 190 188 193 238 178 230 261 274 266 246 184 215 219 200 153 168 175 177 189 189 203 209 215 210 200 207 201
158 164 137 237 230 232 187 191 197 206 223 263 206 236 193 213 164 192 202 191 186 178 184 191 207 203 237 198 211 225 175 247 249 198 247 165 171 88 343 337 21 88 102 224 133 250 79 283 128 254 315 331 337 356 10 339 53 102 172 265 156 171 139 197 120 219 243 196 231 248 254 250 182 129 357 132 167 197 199 228 211 202 221 212 197 203 196 198
167 101 112 158 174 218 204 208 197 198 215 218 215 231 232 239 211 201 181 201 184 184 131 234 203 158 209 177 206 204 219 201 279 285 148 102 144 27 339 13 91 116 116 250 141 123 116 195 119 161 214 242 258 227 250 260 289 289 230 308 276 149 209 141 252 203 239 175 93 231 277 255 13 211 217 214 206 236 245 236 237 218 215 200 191 191 190 177
188 194 178 120 179 235 269 349 32 198 201 207 226 234 228 238 247 199 175 223 189 192 183 174 219 169 199 177 194 194 226 184 154 240 102 149 172 339 243 332 49 144 188 112 48 77 155 210 141 174 182 224 229 178 181 91 11 287 280 261 272 249 211 224 241 250 254 325 283 255 244 269 277 240 201 238 214 226 238 233 217 218 202 187 180 178 174 178
311 157 166 183 125 230 244 217 210 174 204 187 215 177 221 218 217 260 185 225 203 172 247 197 199 175 232 162 193 212 196 200 213 167 195 138 96 205 355 116 42 39 71 87 13 80 81 273 243 176 221 231 219 243 219 192 218 230 247 265 260 247 211 180 201 225 122 306 260 251 247 231 255 275 217 196 220 236 242 230 223 207 181 175 181 180 184 184
165 254 138 217 171 196 208 217 215 214 224 234 247 275 218 200 199 217 192 218 154 162 158 287 201 198 180 178 159 193 203 194 178 214 124 103 112 337 26 356 65 337 51 53 19 120 138 201 267 149 251 252 252 258 297 314 237 226 244 258 263 258 234 222 230 214 217 230 256 269 274 255 258 260 269 232 205 220 241 253 224 188 162 157 145 163 176 189
185 287 220 298 183 236 207 190 191 210 221 214 264 247 259 199 204 203 163 192 170 248 187 220 215 194 185 170 157 199 170 173 258 301 164 137 150 144 127 12 319 25 61 40 23 112 83 284 228 154 223 259 260 261 303 276 273 278 266 262 261 260 261 249 238 232 217 236 245 258 261 264 264 271 238 241 217 195 207 143 107 126 160 161 162 173 189 212
215 183 289 346 289 325 277 177 188 201 224 212 225 226 176 186 227 228 247 159 201 243 204 204 203 190 191 184 169 178 215 187 168 182 224 118 122 87 198 182 179 10 67 137 129 311 105 269 105 18 201 283 278 100 212 233 251 268 272 266 258 265 277 257 253 250 241 247 254 257 261 268 272 175 218 228 135 113 106 131 152 164 158 166 170 191 207 221
242 137 141 67 348 233 79 177 178 196 215 210 227 227 219 210 238 170 207 281 172 186 185 207 167 113 53 178 196 207 205 147 141 160 169 152 176 217 129 276 119 152 75 88 39 304 77 250 56 107 59 301 305 125 257 265 299 268 273 268 261 260 263 256 250 232 238 243 247 256 257 261 278 284 287 126 121 127 145 144 142 161 169 165 172 198 198 212
60 295 103 136 255 250 170 244 162 166 220 215 218 205 219 210 209 155 277 33 70 20 245 175 171 132 67 149 192 173 179 140 143 138 125 104 121 91 97 161 145 148 177 156 233 132 159 138 152 125 208 255 276 131 198 274 355 313 256 250 254 249 244 261 259 240 231 238 232 231 245 247 245 238 240 231 114 125 122 136 123 148 177 170 179 192 198 202